Terminal Aerodrome Forecast
Issued by NWS

Home | Current Version | Previous Version | Graphics & Text | Print | Product List | Glossary On
Versions: 1 2 3 4 5 6 7 8 9 10 11 12 13 14 15 16 17 18 19 20 21 22 23 24 25 26 27 28 29 30 31 32 33 34 35 36 37 38 39 40 41 42 43 44 45 46 47 48 49 50
000
FTUS43 KLOT 252000 AAB
TAFGYY
TAF AMD
KGYY 252052Z 2521/2618 03018G28KT 1 1/2SM -SN BR OVC009
     FM252300 03017G26KT 6SM -SN OVC012
     FM260000 02013G19KT P6SM BKN020
     FM260500 02006KT P6SM SCT020
     FM261400 VRB03KT P6SM FEW020 BKN080=

USA.gov is the U.S. government's official web portal to all federal, state and local government web resources and services.